Flag for Austria Weather past 2 weeks in Rust, Burgenland, Austria

Now
67 °F

Mild.


Feels Like: 67 °F
Forecast: 62 / 75 °F
Wind: 5 mph from North

Location: Eisenstadt

Current Time: Jul 23, 2014 at 12:18:13 AM

Latest Report: Jul 22, 2014 at 6:00 PM


Visibility: N/A

Pressure: 29.80 "Hg

Humidity: 93%

Dew point: 65 °F

Location of RustLocation

Historic Weather in Rust — Graph

°F

Rust temperature yesterday

Maximum temperature yesterday: 75 °F (at 2:00 PM)
Minimum temperature yesterday: 67 °F (at 5:00 AM)
Average temperature yesterday: 70 °F

Past Weeks' High & Low Weather Summary

 TemperatureHumidityPressure
High91 °F (Jul 20, 4:00 PM)95% (Jul 14, 3:00 AM)30.09 "Hg (Jul 14, 3:00 AM)
Low55 °F (Jul 10, 2:00 AM)32% (Jul 17, 5:00 PM)29.58 "Hg (Jul 8, 7:00 PM)
Average72 °F65%29.87 "Hg
* Reported Jul 7 8:00 PM — Jul 22 6:00 PM, Rust, Weather by CustomWeather, © 2014

Note: Actual official high and low records may vary slightly from our data, if they occured in-between our weather recording intervals... More about our weather records

Advertising

Rust weather history for previous 24 hours

 ConditionsComfort  
Time TempWeatherWind HumidityBarometerVisibility
6:00 PM
Jul 22
67 °FMild.5 mph93%29.80 "HgN/A
5:00 PM67 °FRain. Overcast.5 mph93%29.79 "Hg5 mi
4:00 PM67 °FFog.6 mph91%29.80 "HgN/A
3:00 PM73 °FMild.5 mph75%29.78 "HgN/A
2:00 PM75 °FOvercast.5 mph65%29.78 "Hg9 mi
1:00 PM74 °FMild.6 mph69%29.79 "HgN/A
12:00 PM73 °FMild.6 mph71%29.79 "HgN/A
11:00 AM71 °FOvercast.6 mph73%29.79 "Hg9 mi
10:00 AM71 °FMild.3 mph72%29.78 "HgN/A
9:00 AM69 °FMild.5 mph75%29.78 "HgN/A
8:00 AM69 °FOvercast.5 mph74%29.76 "Hg9 mi
7:00 AM68 °FOvercast.7 mph75%29.75 "Hg9 mi
6:00 AM68 °FOvercast.8 mph76%29.75 "Hg12 mi
5:00 AM67 °FOvercast.5 mph79%29.74 "Hg12 mi
3:00 AM68 °FMild.6 mph80%29.74 "HgN/A
2:00 AM70 °FPassing clouds.5 mph80%29.74 "Hg12 mi
1:00 AM70 °FMild.3 mph82%29.74 "HgN/A
12:00 AM71 °FMild.3 mph79%29.73 "HgN/A
Weather by CustomWeather, © 2014

See weather overviewHow to use our weather pages